{"data":{"norad_id":61958,"epoch":"2026-09-21T09:10:03.572256Z","epoch_age_seconds":109443,"freshness":"FRESH","line1":"1 61958U 24209V   26264.38198579  .00014742  00000+0  44650-3 0  9995","line2":"2 61958  53.1611 303.8052 0001634  68.6758 291.4419 15.34406360105012","mean_motion":15.3440636,"eccentricity":0.0001634,"inclination_deg":53.1611,"raan_deg":303.8052,"arg_perigee_deg":68.6758,"mean_anomaly_deg":291.4419,"bstar":0.0004465,"rev_number":10501,"period_min":93.847369089372,"perigee_km":461.56654680562,"apogee_km":463.80212721856,"semimajor_km":6840.8213370121,"source":"CELESTRAK","updated_at":"2026-09-22T09:00:49.457659Z"}}